When you browse on this site, cookies collect data to enhance your experience and personalize the content and advertising you see.
Visit our Privacy Policy to learn more. By continuing to use the site, you agree to this use of cookies and data.
  • In Belgien
  • Länderverzeichnis
  • Für 7 Tage
  • Wassertemperatur
  • Satellitenkarten
  • Wetterkarte
  • Widgets
  • user-avatar
    Anmelden

    Stündliche Wetter Francistown

    Heute, 19 Juli, Freitag

    Zeit Temperatur Niederschläge Wind Luftdruck Luftfeuchtigkeit
    00:00 +12°C° 0 mm 2 m/S 679 mmHg 31%
    01:00 +11°C° 0 mm 1 m/S 678 mmHg 32%
    02:00 +10°C° 0 mm 1 m/S 678 mmHg 39%
    03:00 +10°C° 0 mm 1 m/S 678 mmHg 40%
    04:00 +8°C° 0 mm 0 m/S 677 mmHg 41%
    05:00 +8°C° 0 mm 0 m/S 677 mmHg 43%
    06:00 +11°C° 0 mm 1 m/S 678 mmHg 37%
    07:00 +12°C° 0 mm 1 m/S 679 mmHg 32%
    08:00 +15°C° 0 mm 1 m/S 680 mmHg 27%
    09:00 +19°C° 0 mm 1 m/S 680 mmHg 23%
    10:00 +22°C° 0 mm 1 m/S 681 mmHg 18%
    11:00 +26°C° 0 mm 1 m/S 681 mmHg 14%
    12:00 +27°C° 0 mm 2 m/S 681 mmHg 13%
    13:00 +28°C° 0 mm 2 m/S 680 mmHg 11%
    14:00 +29°C° 0 mm 3 m/S 679 mmHg 10%
    15:00 +28°C° 0 mm 2 m/S 679 mmHg 10%
    16:00 +27°C° 0 mm 2 m/S 679 mmHg 11%
    17:00 +27°C° 0 mm 1 m/S 678 mmHg 11%
    18:00 +23°C° 0 mm 1 m/S 678 mmHg 16%
    19:00 +20°C° 0 mm 1 m/S 677 mmHg 21%
    20:00 +16°C° 0 mm 1 m/S 677 mmHg 26%
    21:00 +15°C° 0 mm 1 m/S 677 mmHg 25%
    22:00 +14°C° 0 mm 1 m/S 677 mmHg 24%
    23:00 +14°C° 0 mm 2 m/S 678 mmHg 23%

    Morgen, 20 Juli, Samstag

    Zeit Temperatur Niederschläge Wind Luftdruck Luftfeuchtigkeit
    00:00 +13°C° 0 mm 2 m/S 677 mmHg 23%
    01:00 +13°C° 0 mm 2 m/S 677 mmHg 24%
    02:00 +12°C° 0 mm 3 m/S 677 mmHg 25%
    03:00 +12°C° 0 mm 2 m/S 677 mmHg 26%
    04:00 +12°C° 0 mm 2 m/S 677 mmHg 27%
    05:00 +10°C° 0 mm 2 m/S 677 mmHg 28%
    06:00 +12°C° 0 mm 2 m/S 677 mmHg 25%
    07:00 +13°C° 0 mm 2 m/S 678 mmHg 22%
    08:00 +14°C° 0 mm 2 m/S 679 mmHg 19%
    09:00 +18°C° 0 mm 2 m/S 679 mmHg 15%
    10:00 +23°C° 0 mm 2 m/S 680 mmHg 12%
    11:00 +26°C° 0 mm 3 m/S 681 mmHg 9%
    12:00 +28°C° 0 mm 3 m/S 680 mmHg 8%
    13:00 +29°C° 0 mm 3 m/S 680 mmHg 7%
    14:00 +30°C° 0 mm 3 m/S 679 mmHg 6%
    15:00 +29°C° 0 mm 3 m/S 679 mmHg 6%
    16:00 +28°C° 0 mm 2 m/S 679 mmHg 7%
    17:00 +28°C° 0 mm 1 m/S 678 mmHg 7%
    18:00 +24°C° 0 mm 2 m/S 678 mmHg 9%
    19:00 +19°C° 0 mm 2 m/S 678 mmHg 12%
    20:00 +16°C° 0 mm 2 m/S 678 mmHg 14%
    21:00 +14°C° 0 mm 2 m/S 678 mmHg 16%
    22:00 +13°C° 0 mm 1 m/S 678 mmHg 19%
    23:00 +12°C° 0 mm 1 m/S 678 mmHg 22%

    übermorgen, 21 Juli, Sonntag

    Zeit Temperatur Niederschläge Wind Luftdruck Luftfeuchtigkeit
    00:00 +11°C° 0 mm 1 m/S 678 mmHg 25%
    01:00 +11°C° 0 mm 1 m/S 678 mmHg 28%
    02:00 +10°C° 0 mm 1 m/S 678 mmHg 31%
    03:00 +9°C° 0 mm 2 m/S 679 mmHg 41%
    04:00 +7°C° 0 mm 4 m/S 679 mmHg 51%
    05:00 +7°C° 0 mm 5 m/S 679 mmHg 61%
    06:00 +8°C° 0 mm 6 m/S 680 mmHg 68%
    07:00 +9°C° 0 mm 7 m/S 681 mmHg 75%
    08:00 +11°C° 0 mm 7 m/S 682 mmHg 82%
    09:00 +12°C° 0 mm 7 m/S 682 mmHg 73%
    10:00 +15°C° 0 mm 8 m/S 683 mmHg 65%
    11:00 +16°C° 0 mm 8 m/S 683 mmHg 56%
    12:00 +17°C° 0 mm 8 m/S 683 mmHg 51%
    13:00 +18°C° 0 mm 7 m/S 682 mmHg 47%
    14:00 +20°C° 0 mm 7 m/S 681 mmHg 43%
    15:00 +20°C° 0 mm 7 m/S 681 mmHg 44%
    16:00 +18°C° 0 mm 7 m/S 681 mmHg 46%
    17:00 +17°C° 0 mm 7 m/S 681 mmHg 47%
    18:00 +15°C° 0 mm 6 m/S 681 mmHg 56%
    19:00 +13°C° 0 mm 6 m/S 681 mmHg 65%
    20:00 +10°C° 0 mm 5 m/S 681 mmHg 74%
    21:00 +9°C° 0 mm 5 m/S 681 mmHg 78%
    22:00 +8°C° 0 mm 5 m/S 682 mmHg 83%
    23:00 +8°C° 0 mm 5 m/S 682 mmHg 87%

    22 Juli, Montag

    Zeit Temperatur Niederschläge Wind Luftdruck Luftfeuchtigkeit
    00:00 +7°C° 0 mm 5 m/S 681 mmHg 90%
    01:00 +7°C° 0 mm 5 m/S 681 mmHg 92%
    02:00 +6°C° 0 mm 4 m/S 681 mmHg 95%
    03:00 +6°C° 0 mm 4 m/S 681 mmHg 95%
    04:00 +5°C° 0 mm 4 m/S 681 mmHg 96%
    05:00 +5°C° 0 mm 3 m/S 681 mmHg 96%
    06:00 +5°C° 0 mm 3 m/S 681 mmHg 93%
    07:00 +7°C° 0 mm 3 m/S 681 mmHg 90%
    08:00 +7°C° 0 mm 3 m/S 681 mmHg 87%
    09:00 +11°C° 0 mm 3 m/S 682 mmHg 72%
    10:00 +14°C° 0 mm 3 m/S 682 mmHg 57%
    11:00 +19°C° 0 mm 3 m/S 683 mmHg 41%
    12:00 +21°C° 0 mm 2 m/S 682 mmHg 36%
    13:00 +23°C° 0 mm 2 m/S 681 mmHg 30%
    14:00 +25°C° 0 mm 2 m/S 680 mmHg 25%
    15:00 +25°C° 0 mm 2 m/S 680 mmHg 24%
    16:00 +25°C° 0 mm 2 m/S 680 mmHg 23%
    17:00 +25°C° 0 mm 3 m/S 679 mmHg 22%
    18:00 +21°C° 0 mm 3 m/S 679 mmHg 28%
    19:00 +17°C° 0 mm 3 m/S 679 mmHg 35%
    20:00 +13°C° 0 mm 3 m/S 679 mmHg 41%
    21:00 +12°C° 0 mm 3 m/S 679 mmHg 45%
    22:00 +11°C° 0 mm 3 m/S 679 mmHg 48%
    23:00 +10°C° 0 mm 2 m/S 679 mmHg 52%

    23 Juli, Dienstag

    Zeit Temperatur Niederschläge Wind Luftdruck Luftfeuchtigkeit
    00:00 +10°C° 0 mm 2 m/S 678 mmHg 54%
    01:00 +9°C° 0 mm 2 m/S 678 mmHg 57%
    02:00 +9°C° 0 mm 1 m/S 677 mmHg 59%
    03:00 +9°C° 0 mm 1 m/S 677 mmHg 60%
    04:00 +9°C° 0 mm 1 m/S 677 mmHg 60%
    05:00 +8°C° 0 mm 1 m/S 677 mmHg 61%
    06:00 +10°C° 0 mm 1 m/S 678 mmHg 53%
    07:00 +12°C° 0 mm 1 m/S 678 mmHg 46%
    08:00 +14°C° 0 mm 1 m/S 679 mmHg 38%
    09:00 +17°C° 0 mm 2 m/S 680 mmHg 32%
    10:00 +21°C° 0 mm 2 m/S 680 mmHg 26%
    11:00 +25°C° 0 mm 2 m/S 681 mmHg 20%
    12:00 +27°C° 0 mm 3 m/S 680 mmHg 18%
    13:00 +28°C° 0 mm 3 m/S 679 mmHg 16%
    14:00 +30°C° 0 mm 3 m/S 679 mmHg 14%
    15:00 +29°C° 0 mm 3 m/S 678 mmHg 14%
    16:00 +29°C° 0 mm 2 m/S 678 mmHg 14%
    17:00 +28°C° 0 mm 2 m/S 677 mmHg 15%
    18:00 +25°C° 0 mm 2 m/S 677 mmHg 20%
    19:00 +21°C° 0 mm 2 m/S 677 mmHg 25%
    20:00 +18°C° 0 mm 3 m/S 677 mmHg 29%
    21:00 +17°C° 0 mm 2 m/S 677 mmHg 32%
    22:00 +16°C° 0 mm 2 m/S 677 mmHg 34%
    23:00 +15°C° 0 mm 2 m/S 677 mmHg 37%

    24 Juli, Mittwoch

    Zeit Temperatur Niederschläge Wind Luftdruck Luftfeuchtigkeit
    00:00 +15°C° 0 mm 2 m/S 676 mmHg 37%
    01:00 +14°C° 0 mm 3 m/S 676 mmHg 38%
    02:00 +13°C° 0 mm 3 m/S 676 mmHg 39%
    03:00 +13°C° 0 mm 3 m/S 676 mmHg 42%
    04:00 +13°C° 0 mm 3 m/S 676 mmHg 44%
    05:00 +12°C° 0 mm 3 m/S 676 mmHg 46%
    06:00 +13°C° 0 mm 3 m/S 677 mmHg 44%
    07:00 +16°C° 0 mm 3 m/S 678 mmHg 42%
    08:00 +17°C° 0 mm 3 m/S 678 mmHg 40%
    09:00 +20°C° 0 mm 4 m/S 679 mmHg 33%
    10:00 +23°C° 0 mm 5 m/S 680 mmHg 26%
    11:00 +27°C° 0 mm 6 m/S 681 mmHg 20%
    12:00 +28°C° 0 mm 6 m/S 680 mmHg 17%
    13:00 +29°C° 0 mm 6 m/S 680 mmHg 14%
    14:00 +30°C° 0 mm 6 m/S 679 mmHg 11%
    15:00 +29°C° 0 mm 5 m/S 679 mmHg 12%
    16:00 +28°C° 0 mm 4 m/S 679 mmHg 12%
    17:00 +27°C° 0 mm 4 m/S 679 mmHg 13%
    18:00 +23°C° 0 mm 4 m/S 679 mmHg 17%
    19:00 +19°C° 0 mm 3 m/S 679 mmHg 21%
    20:00 +16°C° 0 mm 3 m/S 679 mmHg 25%
    21:00 +14°C° 0 mm 3 m/S 679 mmHg 26%
    22:00 +13°C° 0 mm 3 m/S 679 mmHg 27%
    23:00 +12°C° 0 mm 3 m/S 679 mmHg 28%
    Mehr zeigen